Location: *
(34.6780°N, 135.8310°E)
Time: 09:33:21
(UTC+00:00)

Cosmos 2237 Rocket - Pass Details

Date: 18 October 2019
Orbit: 833 x 851 km, 71.0° (Epoch: 14 November)

Event Time Altitude Azimuth Distance (km) Brightness Sun altitude
Exits shadow 18:44:36 52° 155° (SSE) 1,047 2.6 -29.5°
Maximum altitude 18:45:42 62° 107° (ESE) 946 2.5 -29.3°
Drops below altitude 10° 18:51:18 10° 28° (NNE) 2,477 5.0 -28.2°
Sets 18:53:47 0° 25° (NNE) 3,418 5.8 -27.7°
